[[{"header":{"parameterUnit":"m.s-1","parameterCategory":2,"la1":30.2991,"la2":30.254,"lo1":-89.0895,"lo2":-89.0444,"dy":0.0017,"dx":0.0017,"nx":28,"ny":28,"refTime":"2023-04-08T21:00:00:Z","depth":"0","parameterNumber":2,"parameterNumberName":"U-component_of_CURRENTS"},"data":[0,0,0,0,0,0,0,0,0,0,0,0,0,0,0,0,0,0,0,0,0,0,0,0,0,0,0,0,0,0,0,0,0,0,0,0,0,0,0,0,0,0,0,0,0,0,0,0,0,0,0,0,0,0,0,0,0,0,-0.1946,-0.1946,0,-0.1956,-0.1956,-0.1956,-0.1947,-0.1947,-0.1947,-0.1946,-0.1931,-0.1931,-0.1931,0,0,0,0,0,0,0,0,0,0,0,0,0,-0.1902,-0.1903,-0.1946,-0.1946,-0.1946,-0.1956,-0.1956,-0.1956,-0.1947,-0.1947,-0.1947,-0.1946,-0.1931,-0.1931,-0.1931,0,0,0,0,0,0,0,0,0,0,0,0,0,-0.1916,-0.1903,-0.1946,-0.1944,-0.1945,-0.1956,-0.1956,-0.1956,-0.1947,-0.1947,-0.1947,-0.1946,-0.1931,-0.1931,-0.1931,-0.1934,0,0,-0.193,-0.193,0,0,0,0,0,0,0,0,-0.1915,-0.1917,-0.1944,-0.1945,-0.1945,-0.1952,-0.1935,-0.1948,-0.1947,-0.1944,-0.1946,-0.1946,-0.1937,-0.1937,-0.1936,-0.1934,-0.1933,-0.193,-0.1929,-0.1929,-0.1929,0,0,0,0,0,0,0,-0.1914,-0.1916,-0.1948,-0.1945,-0.1945,-0.1938,-0.194,-0.1938,-0.194,-0.1944,-0.1944,-0.1949,-0.1937,-0.1937,-0.1936,-0.1933,-0.193,-0.1929,-0.1929,-0.1929,-0.1941,-0.1942,0,0,0,0,0,0,-0.1918,-0.1916,-0.1947,-0.1948,-0.1931,-0.194,-0.1941,-0.1948,-0.1941,-0.194,-0.1949,-0.1948,-0.1938,-0.1936,-0.1935,-0.1946,-0.1929,-0.1929,-0.1929,-0.194,-0.1941,-0.1942,0,0,0,0,0,0,-0.1917,-0.1921,-0.1947,-0.1934,-0.1937,-0.1941,-0.1949,-0.1949,-0.195,-0.1945,-0.1943,-0.1951,-0.1937,-0.1936,-0.1936,-0.1945,-0.1929,-0.1929,-0.194,-0.1941,-0.1941,-0.1961,0,0,0,0,0,0,-0.1916,-0.1921,-0.1923,-0.1934,-0.1938,-0.1958,-0.1949,-0.1949,-0.1954,-0.1953,-0.1946,-0.1944,-0.1937,-0.1937,-0.1936,-0.1944,-0.1928,-0.1939,-0.194,-0.1941,-0.196,-0.1963,-0.1965,0,0,0,0,0,-0.1914,-0.1923,-0.1924,-0.1927,-0.1943,-0.1959,-0.196,-0.196,-0.1954,-0.1959,-0.1952,-0.1944,-0.1942,-0.1937,-0.1935,-0.1944,-0.1939,-0.194,-0.1941,-0.1959,-0.1962,-0.1965,0,0,0,0,0,0,-0.1904,-0.1923,-0.1924,-0.1937,-0.1948,-0.1958,-0.1961,-0.1962,-0.1961,-0.1958,-0.1949,-0.1947,-0.1951,-0.1946,-0.194,-0.1951,-0.194,-0.1941,-0.1954,-0.1957,-0.196,-0.1974,-0.1928,0,0,0,0,0,-0.1904,-0.1914,-0.1932,-0.194,-0.1948,-0.1954,-0.1959,-0.1962,-0.1965,-0.1964,-0.1958,-0.1955,-0.1956,-0.1955,-0.1954,-0.1958,-0.1963,-0.1964,-0.1966,-0.1968,-0.198,-0.199,-0.1995,-0.1946,-0.1946,-0.1946,0,0,-0.19,-0.1913,-0.1918,-0.1938,-0.1945,-0.1962,-0.1956,-0.1968,-0.198,-0.1963,-0.197,-0.1963,-0.196,-0.1965,-0.1967,-0.1961,-0.1986,-0.197,-0.1972,-0.1982,-0.1992,-0.1997,-0.2001,-0.1946,-0.1946,-0.1946,0,0,-0.1904,-0.1913,-0.1925,-0.1939,-0.1957,-0.1965,-0.1971,-0.1983,-0.1986,-0.1993,-0.1986,-0.1986,-0.1982,-0.1986,-0.1987,-0.2004,-0.1999,-0.2,-0.2023,-0.2033,-0.2037,-0.2041,-0.2056,-0.2061,-0.2,-0.2,-0.2,0,-0.1899,-0.1918,-0.1929,-0.1949,-0.1962,-0.197,-0.1987,-0.1997,-0.2005,-0.2012,-0.1998,-0.2003,-0.1996,-0.2014,-0.2018,-0.201,-0.2015,-0.201,-0.2036,-0.204,-0.2044,-0.2058,-0.2063,-0.2001,-0.2001,-0.2001,-0.2001,0,-0.1913,-0.1931,-0.1941,-0.1968,-0.1984,-0.1999,-0.202,-0.2033,-0.2033,-0.2039,-0.2051,-0.2041,-0.2044,-0.2042,-0.2034,-0.2058,-0.2053,-0.2038,-0.2028,-0.205,-0.2064,-0.2069,-0.2003,-0.2002,-0.2002,-0.2002,0,0,-0.189,-0.1941,-0.1942,-0.1963,-0.1995,-0.2011,-0.2039,-0.2066,-0.2089,-0.2085,-0.2108,-0.2103,-0.2094,-0.2095,-0.2084,-0.2093,-0.2118,-0.2077,-0.2077,-0.2093,-0.2145,-0.2176,-0.2185,-0.2103,-0.2104,-0.2105,-0.2145,0,-0.1894,-0.1932,-0.1957,-0.1993,-0.2015,-0.2042,-0.2069,-0.2096,-0.2112,-0.2137,-0.2133,-0.2143,-0.2115,-0.2114,-0.212,-0.212,-0.2132,-0.2109,-0.2122,-0.2123,-0.2148,-0.2192,-0.2198,-0.2238,-0.215,-0.2151,-0.2151,0,-0.1891,-0.1921,-0.1955,-0.2013,-0.2025,-0.2044,-0.2093,-0.2122,-0.2164,-0.2174,-0.2186,-0.2187,-0.22,-0.217,-0.2184,-0.2169,-0.2163,-0.2161,-0.2161,-0.219,-0.2164,-0.2202,-0.225,-0.2233,-0.2159,-0.2159,-0.2158,0,-0.1859,-0.1917,-0.1943,-0.1961,-0.2027,-0.2044,-0.2072,-0.2121,-0.2156,-0.2194,-0.222,-0.223,-0.2238,-0.2232,-0.2231,-0.2204,-0.2256,-0.2214,-0.2241,-0.2242,-0.2253,-0.2254,-0.2289,-0.2233,-0.2233,-0.2233,-0.2233,0,-0.1849,-0.187,-0.1928,-0.1943,-0.1978,-0.2024,-0.2065,-0.2101,-0.216,-0.2203,-0.2227,-0.2264,-0.2254,-0.2284,-0.2263,-0.2284,-0.2279,-0.2266,-0.2263,-0.226,-0.2262,-0.2251,-0.2252,-0.2234,-0.2234,-0.2234,-0.2233,0,-0.1805,-0.1847,-0.1882,-0.1944,-0.1964,-0.1981,-0.2055,-0.2085,-0.2148,-0.2209,-0.2221,-0.2293,-0.2329,-0.2342,-0.235,-0.2335,-0.2331,-0.235,-0.2356,-0.2354,-0.2348,-0.235,-0.2357,-0.2308,-0.2378,-0.2379,-0.238,0,-0.1783,-0.1795,-0.1862,-0.1876,-0.1898,-0.1939,-0.1967,-0.2052,-0.2093,-0.2224,-0.2248,-0.2329,-0.2388,-0.2442,-0.2444,-0.245,-0.2384,-0.2439,-0.239,-0.2375,-0.2373,-0.2315,-0.2266,-0.2407,-0.2408,-0.2409,-0.2409,0,-0.173,-0.1751,-0.1775,-0.1812,-0.1839,-0.1886,-0.1936,-0.1978,-0.2086,-0.2174,-0.2286,-0.2359,-0.2457,-0.2512,-0.2545,-0.2513,-0.2413,-0.2458,-0.2437,-0.2412,-0.2356,-0.2298,-0.2353,-0.2417,-0.2417,-0.2416,-0.2416,-0.2415,-0.1668,-0.1671,-0.1701,-0.173,-0.1768,-0.1808,-0.1821,-0.1923,-0.2019,-0.2173,-0.2278,-0.2454,-0.2554,-0.2622,-0.2594,-0.2561,-0.2486,-0.2486,-0.2493,-0.2436,-0.2384,-0.2471,-0.2534,-0.2533,-0.2533,-0.2533,-0.2533,0,-0.1585,-0.1598,-0.1616,-0.1652,-0.166,-0.1713,-0.178,-0.1803,-0.1909,-0.2162,-0.231,-0.2609,-0.2664,-0.2717,-0.273,-0.2639,-0.2513,-0.2535,-0.2446,-0.2393,-0.2476,-0.2473,-0.2533,-0.2533,-0.2533,-0.2533,-0.2533,-0.2533,-0.1538,-0.1524,-0.1543,-0.1531,-0.1551,-0.1544,-0.1562,-0.1647,-0.1811,-0.212,-0.2433,-0.2699,-0.2774,-0.2956,-0.285,-0.2695,-0.2551,-0.2489,-0.2422,-0.2493,-0.2488,-0.2482,-0.2478,-0.2538,-0.2538,-0.2279,-0.2278,-0.2277]},{"header":{"parameterUnit":"m.s-1","parameterCategory":2,"la1":30.2991,"la2":30.254,"lo1":-89.0895,"lo2":-89.0444,"dy":0.0017,"dx":0.0017,"nx":28,"ny":28,"refTime":"2023-04-08T21:00:00:Z","depth":"0","parameterNumber":3,"parameterNumberName":"V-component_of_CURRENTS"},"data":[0,0,0,0,0,0,0,0,0,0,0,0,0,0,0,0,0,0,0,0,0,0,0,0,0,0,0,0,0,0,0,0,0,0,0,0,0,0,0,0,0,0,0,0,0,0,0,0,0,0,0,0,0,0,0,0,0,0,-0.0327,-0.0326,0,-0.0243,-0.0242,-0.0241,-0.0192,-0.0192,-0.0192,-0.0192,-0.0083,-0.0081,-0.0078,0,0,0,0,0,0,0,0,0,0,0,0,0,-0.0397,-0.0397,-0.0327,-0.0326,-0.0325,-0.0243,-0.0242,-0.024,-0.0192,-0.0192,-0.0192,-0.0192,-0.0084,-0.0081,-0.0078,0,0,0,0,0,0,0,0,0,0,0,0,0,-0.0345,-0.0396,-0.0327,-0.0292,-0.0288,-0.0243,-0.0242,-0.024,-0.0192,-0.0192,-0.0192,-0.0192,-0.0085,-0.0081,-0.0077,-0.0054,0,0,-0.0064,-0.0062,0,0,0,0,0,0,0,0,-0.0348,-0.0342,-0.0298,-0.0294,-0.029,-0.0229,-0.0227,-0.0177,-0.0192,-0.0227,-0.0192,-0.0192,-0.013,-0.0122,-0.0106,-0.0049,-0.0044,-0.0064,-0.0061,-0.006,-0.0058,0,0,0,0,0,0,0,-0.0352,-0.0345,-0.0293,-0.0297,-0.0292,-0.0264,-0.0256,-0.0217,-0.018,-0.0224,-0.0221,-0.0213,-0.0128,-0.011,-0.0103,-0.0043,-0.0064,-0.006,-0.0058,-0.0056,0.0035,0.0035,0,0,0,0,0,0,-0.0366,-0.0349,-0.0295,-0.029,-0.032,-0.0263,-0.0254,-0.0248,-0.018,-0.017,-0.0213,-0.0211,-0.0117,-0.0108,-0.0099,-0.0072,-0.006,-0.0056,-0.0053,0.0035,0.0035,0.0035,0,0,0,0,0,0,-0.0368,-0.0362,-0.0299,-0.0318,-0.0308,-0.0262,-0.0254,-0.0246,-0.0228,-0.0172,-0.0162,-0.0204,-0.0117,-0.0105,-0.0065,-0.0067,-0.0054,-0.005,0.0036,0.0035,0.0035,-0.0014,0,0,0,0,0,0,-0.0371,-0.0364,-0.0364,-0.0319,-0.0308,-0.0276,-0.0254,-0.0244,-0.0224,-0.022,-0.0161,-0.0151,-0.0116,-0.0072,-0.0061,-0.0061,-0.0047,0.0036,0.0036,0.0035,-0.0012,-0.0016,-0.0019,0,0,0,0,0,-0.0373,-0.0375,-0.0365,-0.0358,-0.031,-0.0277,-0.0268,-0.0234,-0.0224,-0.0217,-0.0178,-0.0153,-0.0066,-0.0068,-0.0056,-0.0054,0.0036,0.0036,0.0035,-0.0011,-0.0015,-0.0019,0,0,0,0,0,0,-0.0404,-0.0369,-0.0357,-0.0347,-0.0317,-0.0269,-0.026,-0.0238,-0.0201,-0.0199,-0.0148,-0.0135,-0.0103,-0.0072,-0.0076,-0.0029,-0.0013,-0.0011,-0.0052,-0.0056,-0.0059,-0.0069,-0.0043,0,0,0,0,0,-0.0413,-0.0406,-0.0366,-0.036,-0.0347,-0.0306,-0.0288,-0.0266,-0.0228,-0.0212,-0.017,-0.0129,-0.0093,-0.007,-0.0034,-0.0004,0.0021,0.0004,0.0,-0.0003,-0.0003,0.0028,0.0028,0.0035,0.0035,0.0035,0,0,-0.0424,-0.0404,-0.04,-0.0366,-0.0341,-0.0325,-0.0295,-0.0272,-0.0257,-0.0205,-0.0174,-0.0138,-0.0088,-0.0057,-0.004,-0.0031,0.0008,-0.0003,-0.0006,-0.0004,0.0028,0.0027,0.0027,0.0034,0.0035,0.0035,0,0,-0.0443,-0.0425,-0.0425,-0.0403,-0.037,-0.0342,-0.034,-0.0293,-0.0272,-0.0237,-0.02,-0.0166,-0.0107,-0.0073,-0.0049,-0.0047,-0.0012,-0.0038,-0.0058,-0.0029,-0.0029,-0.0029,-0.0003,-0.0,-0.0038,-0.0038,-0.0039,0,-0.0459,-0.0453,-0.042,-0.0413,-0.0401,-0.0355,-0.0352,-0.032,-0.0267,-0.025,-0.0235,-0.0154,-0.0115,-0.0075,-0.0076,-0.0055,-0.0034,-0.0049,-0.0034,-0.0033,-0.0032,-0.0005,-0.0002,-0.0041,-0.0041,-0.004,-0.004,0,-0.0475,-0.047,-0.0469,-0.0447,-0.0428,-0.0418,-0.0374,-0.0352,-0.0323,-0.0288,-0.0245,-0.0189,-0.0142,-0.0126,-0.0097,-0.0072,-0.0059,-0.0045,-0.0027,-0.0036,-0.0007,-0.0002,-0.0044,-0.0043,-0.0043,-0.0042,0,0,-0.051,-0.0487,-0.0487,-0.0488,-0.0448,-0.0436,-0.0412,-0.0376,-0.0365,-0.0309,-0.0287,-0.0223,-0.0193,-0.0164,-0.0123,-0.0094,-0.0072,-0.0071,-0.0068,-0.005,-0.0009,0.0034,0.0044,-0.0057,-0.0056,-0.0056,0.0007,0,-0.0534,-0.0545,-0.0516,-0.0521,-0.0524,-0.0478,-0.0466,-0.0428,-0.0383,-0.0349,-0.0285,-0.0247,-0.0206,-0.0188,-0.0151,-0.0089,-0.0061,-0.009,0.0002,0.0005,0.0041,0.005,0.0074,0.0135,0.0012,0.0012,0.0013,0,-0.0558,-0.0565,-0.0581,-0.0574,-0.057,-0.0562,-0.0535,-0.0512,-0.0448,-0.0416,-0.0358,-0.0303,-0.0241,-0.0213,-0.011,-0.0131,-0.0077,-0.0031,-0.0027,0.0036,0.0058,0.0127,0.0149,0.0278,0.0021,0.002,0.0019,0,-0.061,-0.0607,-0.0627,-0.0622,-0.0604,-0.0602,-0.0586,-0.0536,-0.0522,-0.0451,-0.0434,-0.0345,-0.0304,-0.0221,-0.0107,-0.0114,0.0004,0.0007,0.0097,0.0101,0.0152,0.0159,0.0307,0.0069,0.0069,0.0069,0.0069,0,-0.0648,-0.0662,-0.0655,-0.0666,-0.0696,-0.0656,-0.0664,-0.0633,-0.0587,-0.0579,-0.0474,-0.0443,-0.0306,-0.0213,-0.0119,0.0015,-0.0001,0.01,0.0124,0.0135,0.014,0.028,0.0348,0.0071,0.0071,0.007,0.007,0,-0.0697,-0.069,-0.0716,-0.0716,-0.0721,-0.0739,-0.0727,-0.0731,-0.0674,-0.0657,-0.0639,-0.0516,-0.0391,-0.0242,-0.0097,-0.0,0.0206,0.0168,0.0176,0.02,0.0398,0.0461,0.0658,0.0687,0.0271,0.0273,0.0274,0,-0.0722,-0.0741,-0.0767,-0.0796,-0.0796,-0.0814,-0.0834,-0.0787,-0.0783,-0.0704,-0.0704,-0.057,-0.048,-0.0223,-0.0017,0.0174,0.0269,0.0306,0.03,0.0425,0.0512,0.0567,0.0579,0.0345,0.0347,0.0348,0.0349,0,-0.0771,-0.0778,-0.0806,-0.0874,-0.0904,-0.0936,-0.0948,-0.0959,-0.0904,-0.0887,-0.083,-0.0747,-0.046,-0.0212,0.0076,0.0197,0.0413,0.034,0.0471,0.0592,0.066,0.0693,0.0284,0.0362,0.0361,0.036,0.0359,0.0358,-0.0807,-0.0847,-0.0891,-0.0955,-0.0999,-0.105,-0.1087,-0.1092,-0.1104,-0.1086,-0.0952,-0.0833,-0.0378,0.0039,0.0193,0.0559,0.052,0.0642,0.0709,0.0753,0.0791,0.0412,0.0517,0.0517,0.0517,0.0516,0.0516,0,-0.0854,-0.0902,-0.097,-0.1047,-0.112,-0.1116,-0.1164,-0.1207,-0.1248,-0.1184,-0.112,-0.066,-0.0237,0.0187,0.075,0.0925,0.094,0.1005,0.1086,0.1074,0.0745,0.0757,0.0917,0.0916,0.0916,0.0916,0.0916,0.0916,-0.0881,-0.0959,-0.1002,-0.1138,-0.1195,-0.1287,-0.1323,-0.1379,-0.1352,-0.125,-0.1032,-0.0847,-0.0114,0.0872,0.1347,0.1349,0.1444,0.1452,0.1487,0.1272,0.1242,0.1214,0.1242,0.1501,0.1501,0.1774,0.1777,0.1779]}],[{"header":{"parameterUnit":"m.s-1","parameterCategory":2,"la1":30.2991,"la2":30.254,"lo1":-89.0895,"lo2":-89.0444,"dy":0.0017,"dx":0.0017,"nx":28,"ny":28,"refTime":"2023-04-08T21:00:00:Z","depth":"2","parameterNumber":2,"parameterNumberName":"U-component_of_CURRENTS"},"data":[0,0,0,0,0,0,0,0,0,0,0,0,0,0,0,0,0,0,0,0,0,0,0,0,0,0,0,0,0,0,0,0,0,0,0,0,0,0,0,0,0,0,0,0,0,0,0,0,0,0,0,0,0,0,0,0,0,0,-0.1888,-0.1888,0,-0.1898,-0.1898,-0.1898,-0.189,-0.189,-0.189,-0.189,-0.1876,-0.1876,-0.1876,0,0,0,0,0,0,0,0,0,0,0,0,0,-0.1845,-0.1846,-0.1888,-0.1888,-0.1888,-0.1898,-0.1898,-0.1898,-0.189,-0.189,-0.189,-0.189,-0.1876,-0.1876,-0.1876,0,0,0,0,0,0,0,0,0,0,0,0,0,-0.1859,-0.1846,-0.1888,-0.1887,-0.1887,-0.1898,-0.1898,-0.1898,-0.189,-0.189,-0.189,-0.189,-0.1876,-0.1876,-0.1876,-0.1878,0,0,-0.1875,-0.1874,0,0,0,0,0,0,0,0,-0.1858,-0.186,-0.1887,-0.1887,-0.1888,-0.1895,-0.1878,-0.1891,-0.189,-0.1887,-0.189,-0.189,-0.1882,-0.1881,-0.1881,-0.1877,-0.1876,-0.1875,-0.1874,-0.1874,-0.1874,0,0,0,0,0,0,0,-0.1857,-0.1859,-0.189,-0.1887,-0.1888,-0.1881,-0.1883,-0.188,-0.1883,-0.1887,-0.1887,-0.1892,-0.1881,-0.1881,-0.188,-0.1876,-0.1875,-0.1874,-0.1874,-0.1874,-0.1886,-0.1887,0,0,0,0,0,0,-0.1861,-0.1859,-0.1889,-0.189,-0.1874,-0.1882,-0.1884,-0.1891,-0.1884,-0.1883,-0.1892,-0.1892,-0.1882,-0.1881,-0.188,-0.1891,-0.1874,-0.1874,-0.1874,-0.1886,-0.1886,-0.1887,0,0,0,0,0,0,-0.186,-0.1864,-0.1889,-0.1876,-0.1879,-0.1884,-0.1891,-0.1891,-0.1893,-0.1888,-0.1887,-0.1895,-0.1881,-0.188,-0.1881,-0.189,-0.1874,-0.1873,-0.1885,-0.1886,-0.1887,-0.1908,0,0,0,0,0,0,-0.1859,-0.1864,-0.1867,-0.1877,-0.188,-0.19,-0.1892,-0.1892,-0.1897,-0.1897,-0.189,-0.1888,-0.1881,-0.1882,-0.1881,-0.1889,-0.1873,-0.1884,-0.1885,-0.1886,-0.1906,-0.1909,-0.1911,0,0,0,0,0,-0.1857,-0.1866,-0.1867,-0.187,-0.1885,-0.19,-0.1902,-0.1902,-0.1898,-0.1902,-0.1896,-0.1889,-0.1887,-0.1882,-0.188,-0.1889,-0.1884,-0.1885,-0.1886,-0.1905,-0.1908,-0.1911,0,0,0,0,0,0,-0.1848,-0.1866,-0.1867,-0.188,-0.1891,-0.19,-0.1904,-0.1905,-0.1904,-0.1902,-0.1893,-0.1891,-0.1897,-0.1891,-0.1885,-0.1896,-0.1885,-0.1886,-0.19,-0.1903,-0.1906,-0.192,-0.1873,0,0,0,0,0,-0.1848,-0.1858,-0.1875,-0.1883,-0.1891,-0.1897,-0.1902,-0.1905,-0.1909,-0.1908,-0.1903,-0.1899,-0.1901,-0.19,-0.1899,-0.1903,-0.1908,-0.191,-0.1912,-0.1914,-0.1926,-0.1936,-0.1941,-0.1891,-0.1891,-0.1891,0,0,-0.1845,-0.1857,-0.1862,-0.1882,-0.1888,-0.1905,-0.1899,-0.1911,-0.1924,-0.1906,-0.1915,-0.1908,-0.1905,-0.1911,-0.1913,-0.1906,-0.1932,-0.1916,-0.1918,-0.1928,-0.1938,-0.1943,-0.1947,-0.1892,-0.1892,-0.1891,0,0,-0.1849,-0.1857,-0.1869,-0.1883,-0.1901,-0.1909,-0.1915,-0.1927,-0.193,-0.1938,-0.1931,-0.1932,-0.1928,-0.1932,-0.1933,-0.195,-0.1946,-0.1947,-0.197,-0.198,-0.1984,-0.1988,-0.2003,-0.2008,-0.1947,-0.1947,-0.1947,0,-0.1844,-0.1862,-0.1874,-0.1893,-0.1905,-0.1913,-0.1931,-0.1941,-0.195,-0.1957,-0.1943,-0.195,-0.1942,-0.196,-0.1965,-0.1957,-0.1962,-0.1957,-0.1984,-0.1987,-0.1991,-0.2005,-0.201,-0.1948,-0.1948,-0.1948,-0.1948,0,-0.1858,-0.1876,-0.1885,-0.1912,-0.1927,-0.1943,-0.1964,-0.1976,-0.1977,-0.1984,-0.1997,-0.1987,-0.1991,-0.1989,-0.1981,-0.2005,-0.2,-0.1985,-0.1975,-0.1997,-0.2011,-0.2016,-0.195,-0.195,-0.1949,-0.1949,0,0,-0.1836,-0.1885,-0.1886,-0.1907,-0.1939,-0.1954,-0.1982,-0.2009,-0.2032,-0.2029,-0.2053,-0.2049,-0.204,-0.2041,-0.2031,-0.204,-0.2065,-0.2025,-0.2025,-0.204,-0.2093,-0.2122,-0.213,-0.2051,-0.2052,-0.2053,-0.2093,0,-0.184,-0.1876,-0.1901,-0.1936,-0.1957,-0.1984,-0.2012,-0.2038,-0.2055,-0.2081,-0.2077,-0.2088,-0.2062,-0.2061,-0.2067,-0.2067,-0.208,-0.2057,-0.2069,-0.207,-0.2094,-0.2137,-0.193,-0.1951,-0.2098,-0.2098,-0.2099,0,-0.1837,-0.1866,-0.1899,-0.1956,-0.1968,-0.1987,-0.2036,-0.2065,-0.2107,-0.2118,-0.2131,-0.2133,-0.2146,-0.2117,-0.2131,-0.2116,-0.211,-0.2108,-0.2109,-0.2136,-0.211,-0.1953,-0.1955,-0.2107,-0.2107,-0.2106,-0.2106,0,-0.1806,-0.1862,-0.1888,-0.1906,-0.197,-0.1987,-0.2015,-0.2064,-0.2099,-0.2138,-0.2165,-0.2175,-0.2184,-0.2179,-0.2177,-0.2151,-0.2203,-0.2161,-0.2186,-0.2188,-0.2016,-0.2002,-0.218,-0.218,-0.218,-0.218,-0.218,0,-0.1796,-0.1817,-0.1873,-0.1888,-0.1924,-0.1969,-0.201,-0.2046,-0.2104,-0.2147,-0.2172,-0.2208,-0.22,-0.223,-0.2209,-0.2229,-0.2225,-0.2211,-0.2208,-0.202,-0.2006,-0.2141,-0.2136,-0.2181,-0.2181,-0.2181,-0.2181,0,-0.1753,-0.1794,-0.1828,-0.1889,-0.1909,-0.1928,-0.2,-0.203,-0.2093,-0.2153,-0.2166,-0.2237,-0.2273,-0.2286,-0.2294,-0.2279,-0.2286,-0.2293,-0.2087,-0.206,-0.2252,-0.2248,-0.2316,-0.2318,-0.2319,-0.232,-0.2321,0,-0.1732,-0.1743,-0.181,-0.1824,-0.1846,-0.1887,-0.1915,-0.1999,-0.204,-0.2168,-0.2192,-0.2272,-0.2323,-0.2376,-0.2334,-0.2328,-0.2343,-0.2158,-0.208,-0.2281,-0.227,-0.2263,-0.2257,-0.1846,-0.1843,-0.1841,-0.1839,0,-0.168,-0.1701,-0.1724,-0.1762,-0.1789,-0.1835,-0.1884,-0.1925,-0.2031,-0.2113,-0.2223,-0.2288,-0.2343,-0.2264,-0.2278,-0.2227,-0.2142,-0.2113,-0.2358,-0.1872,-0.1848,-0.1835,-0.1841,-0.1816,-0.1819,-0.182,-0.1821,-0.1822,-0.1619,-0.1622,-0.1651,-0.1682,-0.1719,-0.1757,-0.1769,-0.185,-0.1938,-0.2034,-0.2158,-0.221,-0.2186,-0.2135,-0.2046,-0.196,-0.2097,-0.1972,-0.1974,-0.1979,-0.1946,-0.1929,-0.1906,-0.1908,-0.191,-0.1912,-0.1914,0,-0.1531,-0.155,-0.1568,-0.1604,-0.1604,-0.1665,-0.1729,-0.1717,-0.179,-0.1923,-0.2017,-0.1872,-0.1862,-0.1842,-0.1692,-0.1683,-0.1587,-0.1597,-0.1445,-0.147,-0.1491,-0.1427,-0.1252,-0.125,-0.1248,-0.1246,0,0,-0.1483,-0.1466,-0.1484,-0.1469,-0.1495,-0.1474,-0.149,-0.1508,-0.1568,-0.1606,-0.1664,-0.1839,-0.1862,-0.1583,-0.1488,-0.1361,-0.1398,-0.1291,-0.1823,-0.1673,-0.1692,-0.1712,-0.1644,0,0,0,0,0]},{"header":{"parameterUnit":"m.s-1","parameterCategory":2,"la1":30.2991,"la2":30.254,"lo1":-89.0895,"lo2":-89.0444,"dy":0.0017,"dx":0.0017,"nx":28,"ny":28,"refTime":"2023-04-08T21:00:00:Z","depth":"2","parameterNumber":3,"parameterNumberName":"V-component_of_CURRENTS"},"data":[0,0,0,0,0,0,0,0,0,0,0,0,0,0,0,0,0,0,0,0,0,0,0,0,0,0,0,0,0,0,0,0,0,0,0,0,0,0,0,0,0,0,0,0,0,0,0,0,0,0,0,0,0,0,0,0,0,0,-0.0262,-0.0261,0,-0.0179,-0.0178,-0.0177,-0.0129,-0.0129,-0.0129,-0.0129,-0.0022,-0.0019,-0.0016,0,0,0,0,0,0,0,0,0,0,0,0,0,-0.0332,-0.0331,-0.0262,-0.0261,-0.026,-0.0179,-0.0178,-0.0177,-0.0129,-0.0129,-0.0129,-0.0129,-0.0023,-0.0019,-0.0016,0,0,0,0,0,0,0,0,0,0,0,0,0,-0.028,-0.0331,-0.0262,-0.0228,-0.0224,-0.0179,-0.0178,-0.0176,-0.0129,-0.0129,-0.0129,-0.0129,-0.0024,-0.002,-0.0015,0.0008,0,0,-0.0003,-0.0001,0,0,0,0,0,0,0,0,-0.0283,-0.0277,-0.0234,-0.023,-0.0226,-0.0165,-0.0163,-0.0114,-0.0129,-0.0164,-0.0129,-0.0129,-0.0068,-0.006,-0.0044,0.0013,0.0018,-0.0002,0.0,0.0002,0.0003,0,0,0,0,0,0,0,-0.0287,-0.028,-0.0228,-0.0233,-0.0228,-0.02,-0.0193,-0.0153,-0.0117,-0.0161,-0.0158,-0.015,-0.0066,-0.0048,-0.0041,0.0019,-0.0002,0.0001,0.0004,0.0006,0.0097,0.0096,0,0,0,0,0,0,-0.0301,-0.0284,-0.0231,-0.0226,-0.0256,-0.0199,-0.0191,-0.0184,-0.0117,-0.0108,-0.015,-0.0148,-0.0055,-0.0046,-0.0037,-0.001,0.0002,0.0006,0.0008,0.0097,0.0097,0.0096,0,0,0,0,0,0,-0.0303,-0.0298,-0.0234,-0.0254,-0.0244,-0.0198,-0.0191,-0.0182,-0.0165,-0.011,-0.0099,-0.0142,-0.0055,-0.0043,-0.0004,-0.0006,0.0008,0.0012,0.0097,0.0097,0.0096,0.0046,0,0,0,0,0,0,-0.0306,-0.0299,-0.03,-0.0255,-0.0243,-0.0213,-0.0191,-0.0181,-0.0161,-0.0158,-0.0099,-0.0089,-0.0054,-0.001,0.0,0.0,0.0015,0.0097,0.0097,0.0097,0.0048,0.0045,0.0041,0,0,0,0,0,-0.0308,-0.031,-0.03,-0.0294,-0.0246,-0.0213,-0.0204,-0.017,-0.0161,-0.0155,-0.0116,-0.0091,-0.0004,-0.0007,0.0006,0.0007,0.0097,0.0097,0.0097,0.005,0.0045,0.0042,0,0,0,0,0,0,-0.0339,-0.0304,-0.0293,-0.0283,-0.0254,-0.0205,-0.0197,-0.0175,-0.0139,-0.0137,-0.0086,-0.0073,-0.0041,-0.001,-0.0015,0.0032,0.0049,0.0051,0.0009,0.0005,0.0002,-0.0008,0.0018,0,0,0,0,0,-0.0349,-0.0342,-0.0302,-0.0296,-0.0284,-0.0242,-0.0226,-0.0203,-0.0166,-0.015,-0.0109,-0.0068,-0.0032,-0.0009,0.0027,0.0057,0.0082,0.0064,0.0061,0.0058,0.0058,0.0089,0.0089,0.0096,0.0096,0.0096,0,0,-0.036,-0.034,-0.0336,-0.0303,-0.0277,-0.0262,-0.0232,-0.021,-0.0195,-0.0143,-0.0112,-0.0077,-0.0027,0.0004,0.002,0.003,0.0068,0.0057,0.0054,0.0057,0.0089,0.0088,0.0088,0.0096,0.0096,0.0096,0,0,-0.0379,-0.0361,-0.0362,-0.034,-0.0308,-0.028,-0.0277,-0.0232,-0.021,-0.0177,-0.014,-0.0106,-0.0047,-0.0013,0.0012,0.0013,0.0048,0.0021,0.0001,0.0031,0.0031,0.0031,0.0056,0.0059,0.0021,0.0021,0.0021,0,-0.0395,-0.0389,-0.0356,-0.035,-0.0338,-0.0292,-0.029,-0.0258,-0.0206,-0.0189,-0.0175,-0.0094,-0.0055,-0.0015,-0.0016,0.0005,0.0026,0.0011,0.0026,0.0027,0.0028,0.0054,0.0058,0.0019,0.0019,0.0019,0.002,0,-0.0411,-0.0407,-0.0405,-0.0383,-0.0365,-0.0355,-0.0312,-0.029,-0.0261,-0.0227,-0.0184,-0.0128,-0.0082,-0.0066,-0.0038,-0.0013,0.0001,0.0015,0.0034,0.0024,0.0052,0.0057,0.0015,0.0016,0.0017,0.0018,0,0,-0.0447,-0.0423,-0.0423,-0.0424,-0.0385,-0.0373,-0.0349,-0.0314,-0.0302,-0.0247,-0.0225,-0.0162,-0.0132,-0.0103,-0.0063,-0.0034,-0.0012,-0.0011,-0.0009,0.0009,0.005,0.0092,0.0101,0.0003,0.0003,0.0004,0.0066,0,-0.0471,-0.0481,-0.0453,-0.0458,-0.0461,-0.0415,-0.0402,-0.0365,-0.0321,-0.0286,-0.0222,-0.0185,-0.0145,-0.0128,-0.0091,-0.0029,-0.0001,-0.003,0.0062,0.0065,0.0099,0.0107,0.0094,0.0151,0.007,0.0071,0.0072,0,-0.0495,-0.0502,-0.0517,-0.0509,-0.0506,-0.0498,-0.0471,-0.0448,-0.0384,-0.0353,-0.0295,-0.0241,-0.0179,-0.0152,-0.005,-0.0071,-0.0018,0.0029,0.0033,0.0094,0.0115,0.015,0.0163,0.008,0.0079,0.0079,0.0078,0,-0.0547,-0.0544,-0.0563,-0.0558,-0.054,-0.0538,-0.0522,-0.0472,-0.0458,-0.0388,-0.037,-0.0282,-0.0242,-0.0159,-0.0047,-0.0054,0.0064,0.0067,0.0155,0.0158,0.0178,0.0182,0.0129,0.0129,0.0129,0.0129,0.0128,0,-0.0586,-0.0599,-0.0592,-0.0603,-0.0632,-0.0592,-0.06,-0.0569,-0.0523,-0.0514,-0.041,-0.038,-0.0244,-0.0152,-0.0059,0.0074,0.0058,0.0157,0.0181,0.016,0.0162,0.0126,0.0125,0.0131,0.013,0.013,0.0129,0,-0.0635,-0.0628,-0.0653,-0.0653,-0.0657,-0.0676,-0.0663,-0.0667,-0.061,-0.0593,-0.0575,-0.0452,-0.0329,-0.0182,-0.0038,0.0058,0.0178,0.0224,0.0194,0.0214,0.025,0.0245,0.032,0.0322,0.0324,0.0325,0.0327,0,-0.066,-0.0679,-0.0704,-0.0733,-0.0733,-0.0752,-0.0771,-0.0724,-0.0719,-0.0639,-0.0638,-0.0506,-0.0416,-0.0162,0.004,0.0228,0.0216,0.0319,0.0309,0.0256,0.0271,0.0264,0.0257,0.031,0.0311,0.0312,0.0313,0,-0.071,-0.0717,-0.0744,-0.0812,-0.0841,-0.0872,-0.0883,-0.0894,-0.0838,-0.0818,-0.076,-0.0676,-0.0396,-0.0161,0.0122,0.0225,0.0293,0.0342,0.0301,0.0267,0.0253,0.0266,0.0259,0.032,0.0319,0.0319,0.0318,0.0318,-0.0746,-0.0786,-0.0829,-0.0892,-0.0936,-0.0985,-0.1021,-0.1011,-0.1018,-0.0971,-0.0862,-0.0724,-0.0428,-0.0042,0.0185,0.0386,0.0363,0.0407,0.0401,0.0396,0.0387,0.0378,0.0466,0.0466,0.0466,0.0466,0.0466,0,-0.0786,-0.0841,-0.0909,-0.0984,-0.1045,-0.1052,-0.1097,-0.1106,-0.1124,-0.104,-0.096,-0.0672,-0.0355,-0.0068,0.0272,0.0482,0.0461,0.05,0.0441,0.0433,0.0426,0.0416,0.0504,0.0504,0.0505,0.0506,0,0,-0.0811,-0.0885,-0.0927,-0.1055,-0.1118,-0.119,-0.1224,-0.1222,-0.1165,-0.1106,-0.0999,-0.0768,-0.0383,-0.013,0.016,0.0338,0.0318,0.0344,0.0293,0.0181,0.0172,0.0354,0.0329,0,0,0,0,0]}],[{"header":{"parameterUnit":"m.s-1","parameterCategory":2,"la1":30.2991,"la2":30.254,"lo1":-89.0895,"lo2":-89.0444,"dy":0.0017,"dx":0.0017,"nx":28,"ny":28,"refTime":"2023-04-08T21:00:00:Z","depth":"4","parameterNumber":2,"parameterNumberName":"U-component_of_CURRENTS"},"data":[0,0,0,0,0,0,0,0,0,0,0,0,0,0,0,0,0,0,0,0,0,0,0,0,0,0,0,0,0,0,0,0,0,0,0,0,0,0,0,0,0,0,0,0,0,0,0,0,0,0,0,0,0,0,0,0,0,0,-0.1241,-0.1241,0,-0.1279,-0.1279,-0.1279,-0.1312,-0.1313,-0.1313,-0.1314,-0.1359,-0.1359,-0.136,0,0,0,0,0,0,0,0,0,0,0,0,0,-0.1184,-0.1185,-0.1241,-0.1241,-0.1242,-0.1279,-0.1279,-0.1279,-0.1312,-0.1313,-0.1313,-0.1314,-0.1358,-0.1359,-0.136,0,0,0,0,0,0,0,0,0,0,0,0,0,-0.1213,-0.1185,-0.124,-0.1263,-0.1266,-0.1279,-0.1279,-0.1279,-0.1312,-0.1313,-0.1314,-0.1314,-0.1358,-0.1359,-0.136,-0.1353,0,0,-0.1364,-0.1364,0,0,0,0,0,0,0,0,-0.1211,-0.1214,-0.126,-0.1262,-0.1265,-0.1293,-0.1276,-0.1305,-0.1312,-0.1293,-0.1314,-0.1315,-0.1338,-0.134,-0.1344,-0.1355,-0.1357,-0.1364,-0.1365,-0.1365,-0.1365,0,0,0,0,0,0,0,-0.1209,-0.1213,-0.1254,-0.126,-0.1263,-0.1268,-0.1273,-0.1281,-0.131,-0.1295,-0.1298,-0.1304,-0.1339,-0.1343,-0.1345,-0.1357,-0.1364,-0.1365,-0.1365,-0.1366,-0.1432,-0.1433,0,0,0,0,0,0,-0.1207,-0.1211,-0.1253,-0.1256,-0.1241,-0.1268,-0.1274,-0.1282,-0.131,-0.1315,-0.1303,-0.1305,-0.1341,-0.1344,-0.1347,-0.14,-0.1365,-0.1366,-0.1367,-0.1431,-0.1432,-0.1433,0,0,0,0,0,0,-0.1205,-0.121,-0.1252,-0.1235,-0.1241,-0.1269,-0.1277,-0.1282,-0.1309,-0.1316,-0.1321,-0.1328,-0.1341,-0.1345,-0.1376,-0.1399,-0.1367,-0.1368,-0.1429,-0.1431,-0.1433,-0.1466,0,0,0,0,0,0,-0.1204,-0.1209,-0.1224,-0.1235,-0.1242,-0.1275,-0.1277,-0.1283,-0.1311,-0.1315,-0.1339,-0.1342,-0.1342,-0.1375,-0.1377,-0.14,-0.1368,-0.1428,-0.143,-0.1432,-0.1464,-0.1469,-0.1473,0,0,0,0,0,-0.1201,-0.1216,-0.1224,-0.123,-0.1258,-0.1276,-0.128,-0.1301,-0.1312,-0.1328,-0.1345,-0.1343,-0.139,-0.1376,-0.1379,-0.1403,-0.1427,-0.143,-0.1432,-0.1462,-0.1468,-0.1473,0,0,0,0,0,0,-0.12,-0.1221,-0.123,-0.1252,-0.1271,-0.1283,-0.1301,-0.1313,-0.1339,-0.1349,-0.1354,-0.1359,-0.1395,-0.1395,-0.138,-0.1429,-0.1409,-0.1412,-0.1431,-0.1436,-0.1441,-0.1448,-0.1369,0,0,0,0,0,-0.1205,-0.1223,-0.1241,-0.126,-0.1271,-0.129,-0.1304,-0.1319,-0.1338,-0.1351,-0.1368,-0.1386,-0.1403,-0.1417,-0.143,-0.1455,-0.1454,-0.1474,-0.1478,-0.1482,-0.149,-0.1504,-0.151,-0.1441,-0.1441,-0.1441,0,0,-0.121,-0.1224,-0.1235,-0.1261,-0.1278,-0.13,-0.1301,-0.1329,-0.1355,-0.1351,-0.1396,-0.1404,-0.1413,-0.1443,-0.1459,-0.1449,-0.1502,-0.1485,-0.1489,-0.1495,-0.1507,-0.1514,-0.1519,-0.1443,-0.1443,-0.1442,0,0,-0.122,-0.1242,-0.1258,-0.1277,-0.1307,-0.132,-0.1334,-0.136,-0.1383,-0.1417,-0.1423,-0.1449,-0.1474,-0.1487,-0.1494,-0.1533,-0.1526,-0.154,-0.157,-0.1583,-0.1589,-0.1594,-0.1602,-0.1607,-0.1543,-0.1543,-0.1543,0,-0.1228,-0.1249,-0.1267,-0.1288,-0.1308,-0.1332,-0.1357,-0.1381,-0.1417,-0.1438,-0.144,-0.1487,-0.1495,-0.153,-0.1545,-0.1544,-0.1548,-0.1546,-0.1589,-0.1594,-0.1598,-0.1605,-0.1611,-0.1545,-0.1545,-0.1544,-0.1544,0,-0.1241,-0.127,-0.1283,-0.1318,-0.1343,-0.1369,-0.1403,-0.1438,-0.1465,-0.1485,-0.1532,-0.1542,-0.1569,-0.1577,-0.1574,-0.1614,-0.1605,-0.1591,-0.1572,-0.1607,-0.1612,-0.1617,-0.1548,-0.1547,-0.1546,-0.1546,0,0,-0.1223,-0.1282,-0.1288,-0.1316,-0.1364,-0.1385,-0.1435,-0.148,-0.1521,-0.1552,-0.1595,-0.1623,-0.1629,-0.1638,-0.1639,-0.1655,-0.1688,-0.1641,-0.1641,-0.1646,-0.1717,-0.1631,-0.1628,-0.1681,-0.1682,-0.1683,-0.1708,0,-0.123,-0.1273,-0.1303,-0.1355,-0.1381,-0.1427,-0.1471,-0.1519,-0.156,-0.161,-0.1629,-0.1666,-0.1652,-0.1668,-0.1682,-0.1688,-0.1703,-0.1682,-0.1686,-0.1686,-0.1602,-0.1631,-0.1686,-0.1711,-0.1712,-0.1713,-0.1714,0,-0.1224,-0.1259,-0.1307,-0.1381,-0.1398,-0.1434,-0.1512,-0.1558,-0.1628,-0.1657,-0.1694,-0.1713,-0.1746,-0.1726,-0.1751,-0.1739,-0.1736,-0.1734,-0.1735,-0.1647,-0.1609,-0.167,-0.1723,-0.1722,-0.1721,-0.1721,-0.172,0,-0.1188,-0.126,-0.1301,-0.1325,-0.1409,-0.1446,-0.1494,-0.157,-0.1617,-0.1688,-0.1724,-0.1759,-0.1784,-0.1787,-0.179,-0.1774,-0.1814,-0.1786,-0.1707,-0.1701,-0.1756,-0.175,-0.1807,-0.1807,-0.1807,-0.1807,-0.1807,0,-0.1168,-0.1205,-0.1291,-0.1313,-0.1375,-0.1436,-0.1506,-0.156,-0.1639,-0.1687,-0.1742,-0.1775,-0.1803,-0.1829,-0.1814,-0.1777,-0.1831,-0.1719,-0.1703,-0.1769,-0.1765,-0.1759,-0.1753,-0.1808,-0.1808,-0.1808,-0.1808,0,-0.1114,-0.1173,-0.1228,-0.1322,-0.1358,-0.1399,-0.1506,-0.1547,-0.1632,-0.1697,-0.172,-0.1798,-0.1819,-0.1845,-0.1856,-0.18,-0.1778,-0.1755,-0.1838,-0.1825,-0.1649,-0.1645,-0.1653,-0.1651,-0.1648,-0.1646,-0.1645,0,-0.1086,-0.1108,-0.122,-0.1252,-0.1297,-0.1372,-0.1418,-0.1524,-0.1565,-0.1694,-0.1709,-0.1781,-0.1814,-0.1766,-0.1794,-0.1765,-0.1745,-0.1725,-0.1671,-0.165,-0.1634,-0.1634,-0.1633,-0.1641,-0.164,-0.1639,-0.1639,0,-0.1027,-0.1076,-0.1118,-0.1191,-0.1248,-0.1311,-0.1385,-0.1411,-0.1525,-0.1623,-0.1657,-0.1674,-0.1705,-0.1702,-0.1704,-0.1678,-0.1727,-0.1699,-0.1703,-0.1652,-0.1635,-0.1621,-0.1623,-0.1631,-0.1632,-0.1633,-0.1633,0,-0.0977,-0.0993,-0.1057,-0.111,-0.1182,-0.1219,-0.1277,-0.1327,-0.1391,-0.1532,-0.1539,-0.1615,-0.1692,-0.1659,-0.1656,-0.163,-0.1593,-0.1532,-0.1543,-0.1553,-0.1506,-0.1469,-0.1405,0,0,0,0,0,-0.092,-0.0928,-0.097,-0.1028,-0.1094,-0.1138,-0.1239,-0.1297,-0.1417,-0.1406,-0.1471,-0.1493,-0.15,-0.1541,-0.1488,-0.1594,-0.159,-0.1527,-0.1524,-0.1585,-0.1595,-0.1548,0,0,0,0,0,0,-0.088,-0.0914,-0.0936,-0.0945,-0.0963,-0.1031,-0.1088,-0.1171,-0.1179,-0.1301,-0.1312,-0.1404,-0.1428,-0.1504,-0.1456,-0.1467,-0.1436,-0.1579,-0.1575,-0.158,-0.1588,-0.1596,-0.1551,0,0,0,0,0]},{"header":{"parameterUnit":"m.s-1","parameterCategory":2,"la1":30.2991,"la2":30.254,"lo1":-89.0895,"lo2":-89.0444,"dy":0.0017,"dx":0.0017,"nx":28,"ny":28,"refTime":"2023-04-08T21:00:00:Z","depth":"4","parameterNumber":3,"parameterNumberName":"V-component_of_CURRENTS"},"data":[0,0,0,0,0,0,0,0,0,0,0,0,0,0,0,0,0,0,0,0,0,0,0,0,0,0,0,0,0,0,0,0,0,0,0,0,0,0,0,0,0,0,0,0,0,0,0,0,0,0,0,0,0,0,0,0,0,0,-0.001,-0.0009,0,0.0046,0.0047,0.0048,0.0085,0.0085,0.0085,0.0085,0.017,0.0172,0.0174,0,0,0,0,0,0,0,0,0,0,0,0,0,-0.005,-0.0049,-0.001,-0.0009,-0.0009,0.0046,0.0047,0.0048,0.0085,0.0085,0.0085,0.0085,0.0169,0.0172,0.0174,0,0,0,0,0,0,0,0,0,0,0,0,0,-0.0016,-0.0049,-0.001,0.0016,0.0018,0.0046,0.0047,0.0048,0.0085,0.0085,0.0085,0.0085,0.0168,0.0172,0.0175,0.019,0,0,0.0184,0.0186,0,0,0,0,0,0,0,0,-0.0018,-0.0015,0.0011,0.0014,0.0017,0.0058,0.0064,0.0097,0.0085,0.0061,0.0085,0.0085,0.0134,0.014,0.0151,0.0194,0.0197,0.0185,0.0187,0.0188,0.0189,0,0,0,0,0,0,0,-0.0021,-0.0017,0.0013,0.0012,0.0015,0.0036,0.0041,0.007,0.0097,0.0063,0.0065,0.007,0.0136,0.0148,0.0154,0.0199,0.0185,0.0187,0.0189,0.0191,0.0254,0.0254,0,0,0,0,0,0,-0.0032,-0.0019,0.0012,0.0015,-0.0002,0.0036,0.0042,0.0045,0.0096,0.0103,0.007,0.0071,0.0143,0.015,0.0157,0.0172,0.0188,0.0191,0.0193,0.0254,0.0254,0.0254,0,0,0,0,0,0,-0.0033,-0.003,0.0009,-0.0001,0.0005,0.0037,0.004,0.0046,0.0057,0.0101,0.0109,0.0074,0.0143,0.0152,0.018,0.0176,0.0192,0.0195,0.0255,0.0254,0.0254,0.0207,0,0,0,0,0,0,-0.0034,-0.003,-0.0033,-0.0002,0.0005,0.002,0.004,0.0047,0.0059,0.0062,0.0107,0.0115,0.0144,0.0175,0.0183,0.0181,0.0198,0.0255,0.0254,0.0254,0.0209,0.0205,0.0202,0,0,0,0,0,-0.0036,-0.004,-0.0034,-0.003,0.0,0.002,0.0026,0.005,0.0059,0.0061,0.0092,0.0114,0.0178,0.0178,0.0187,0.0186,0.0255,0.0254,0.0254,0.021,0.0206,0.0202,0,0,0,0,0,0,-0.0058,-0.0036,-0.0028,-0.0026,-0.0008,0.0026,0.0029,0.0045,0.0071,0.0074,0.0115,0.0125,0.0147,0.0172,0.0171,0.0202,0.0219,0.022,0.0182,0.0179,0.0175,0.0169,0.02,0,0,0,0,0,-0.0066,-0.0064,-0.0039,-0.0038,-0.0031,-0.0003,0.0007,0.0023,0.005,0.0061,0.0093,0.0125,0.0152,0.017,0.0197,0.0217,0.0241,0.0221,0.0218,0.0215,0.0216,0.0244,0.0244,0.0252,0.0252,0.0252,0,0,-0.0074,-0.0063,-0.0062,-0.0043,-0.0028,-0.002,0.0004,0.0015,0.0023,0.0067,0.0086,0.0114,0.0154,0.0175,0.0187,0.0197,0.0223,0.0214,0.0211,0.0214,0.0244,0.0243,0.0242,0.0252,0.0252,0.0252,0,0,-0.0091,-0.0082,-0.0086,-0.0074,-0.0056,-0.0037,-0.0037,-0.0007,0.0007,0.0028,0.006,0.0085,0.0127,0.0156,0.0175,0.017,0.0202,0.0176,0.0157,0.0185,0.0184,0.0184,0.0206,0.0209,0.0176,0.0176,0.0176,0,-0.0104,-0.0105,-0.0084,-0.0084,-0.0079,-0.0048,-0.0051,-0.003,0.0005,0.0016,0.0027,0.0088,0.0119,0.015,0.0147,0.0163,0.0181,0.0169,0.018,0.018,0.0181,0.0204,0.0207,0.0174,0.0174,0.0174,0.0174,0,-0.012,-0.0123,-0.0125,-0.0115,-0.0107,-0.0105,-0.0077,-0.0065,-0.0045,-0.0021,0.0009,0.0053,0.0089,0.01,0.0123,0.0144,0.0155,0.017,0.0189,0.0177,0.0202,0.0206,0.017,0.0171,0.0172,0.0172,0,0,-0.0143,-0.0139,-0.014,-0.0146,-0.0125,-0.0121,-0.0109,-0.0088,-0.0082,-0.0044,-0.0029,0.0018,0.0042,0.0066,0.0099,0.0124,0.0142,0.0145,0.0147,0.0163,0.0199,0.0202,0.0208,0.0157,0.0157,0.0158,0.0211,0,-0.0163,-0.0182,-0.0167,-0.018,-0.0188,-0.0159,-0.0156,-0.0133,-0.0103,-0.008,-0.0029,-0.0003,0.003,0.0042,0.0074,0.0127,0.0152,0.0126,0.0211,0.0213,0.0215,0.0212,0.016,0.0214,0.0215,0.0216,0.0217,0,-0.0182,-0.0195,-0.0217,-0.0224,-0.0224,-0.0226,-0.0215,-0.0203,-0.0158,-0.0138,-0.0094,-0.0051,-0.0,0.0022,0.0111,0.0092,0.0139,0.0179,0.0183,0.0207,0.0225,0.0231,0.0225,0.0224,0.0223,0.0223,0.0222,0,-0.0215,-0.0227,-0.0251,-0.0252,-0.0253,-0.0258,-0.0255,-0.0224,-0.0218,-0.0169,-0.0158,-0.0086,-0.0055,0.0018,0.0112,0.0107,0.0208,0.0214,0.0263,0.0263,0.0265,0.0265,0.0269,0.0269,0.0269,0.0269,0.0269,0,-0.0239,-0.0257,-0.0273,-0.0285,-0.032,-0.0301,-0.0319,-0.03,-0.0274,-0.0271,-0.0192,-0.0167,-0.0056,0.0021,0.0102,0.02,0.0204,0.026,0.0279,0.0243,0.0239,0.0268,0.0267,0.0271,0.0271,0.027,0.027,0,-0.0264,-0.0272,-0.0305,-0.0325,-0.0336,-0.036,-0.0372,-0.0381,-0.0347,-0.0337,-0.0325,-0.0229,-0.0133,-0.0013,0.0111,0.0181,0.0278,0.0311,0.0265,0.028,0.0314,0.031,0.036,0.036,0.0361,0.0361,0.0362,0,-0.0276,-0.0297,-0.0343,-0.0376,-0.0387,-0.0419,-0.0445,-0.0425,-0.0425,-0.0373,-0.0369,-0.0274,-0.0202,-0.0019,0.0108,0.0268,0.029,0.0344,0.0327,0.0311,0.0324,0.0319,0.0315,0.0362,0.0363,0.0363,0.0363,0,-0.0301,-0.0321,-0.0352,-0.0424,-0.0463,-0.0503,-0.0527,-0.0535,-0.0505,-0.0478,-0.041,-0.03,-0.0187,-0.0034,0.0099,0.0214,0.0312,0.0349,0.0348,0.0333,0.0315,0.0326,0.0321,0.0365,0.0364,0.0364,0.0364,0,-0.032,-0.0355,-0.0404,-0.0464,-0.0524,-0.0568,-0.0576,-0.057,-0.0562,-0.0496,-0.0475,-0.0335,-0.0249,-0.0061,0.0063,0.0179,0.0199,0.0234,0.024,0.0239,0.0194,0.0153,0.0168,0,0,0,0,0,-0.0334,-0.0378,-0.0442,-0.0509,-0.057,-0.06,-0.0624,-0.0618,-0.059,-0.0556,-0.0514,-0.0406,-0.021,-0.011,0.0001,0.0064,0.0216,0.0199,0.0258,0.0375,0.0372,0.0341,0,0,0,0,0,0,-0.0346,-0.0406,-0.0443,-0.0532,-0.0585,-0.0645,-0.0663,-0.0645,-0.0611,-0.0566,-0.0462,-0.0386,-0.0196,-0.0288,-0.0004,0.0037,0.009,0.0299,0.0302,0.0376,0.0374,0.0372,0.0339,0,0,0,0,0]}]]